Temperature
17 16 17 17 17 17 17 17 17 17 18 18 18 18 18 18 18 18 18 18 18 18 18 18 18 18 18 18 18 18 18 18 18 18 18 18 18 18 18 18 18 18 18
17 17 17 17 17 17 17 17 17 17 17 17 18 17 17 18 18 18 17 18 18 18 18 18 18 18 18 18 18 18 18 18 18 18 18 18 18 18 18 18 18 18 18
17 16 16 17 17 17 17 17 17 17 17 17 17 17 17 17 17 17 17 17 17 17 18 18 18 18 18 18 18 18 18 18 18 18 18 17 18 18 18 18 18 18 18
17 16 16 17 17 17 17 17 17 17 17 17 17 17 17 17 17 17 17 17 17 17 17 17 17 17 17 17 17 18 18 18 18 17 17 17 17 17 18 18 17 17 18
17 16 16 17 17 17 17 17 17 17 17 17 17 17 17 17 17 17 17 17 17 17 17 17 17 17 17 17 17 17 17 17 17 17 17 17 17 17 17 17 17 17 17
17 16 16 17 17 17 17 17 17 17 17 17 17 17 17 17 17 17 17 17 17 17 17 17 17 17 17 17 17 17 17 17 17 17 17 17 17 17 17 17 17 17 17
16 16 16 17 17 17 17 17 17 17 17 17 17 17 17 17 17 17 17 17 17 17 17 17 17 17 17 17 17 17 17 17 16 16 16 17 17 17 17 17 17 17 17
16 16 16 16 16 16 16 16 16 16 16 17 17 17 17 17 17 16 17 17 16 16 16 16 17 17 17 17 17 17 17 16 16 16 16 16 17 17 17 17 17 17 17
16 16 16 16 16 16 16 16 16 16 16 16 16 17 17 17 16 16 16 16 16 16 16 16 16 16 16 16 16 16 16 16 16 16 15 16 16 16 16 16 16 17 17
17 17 16 16 16 16 16 16 16 16 16 16 16 16 16 16 16 16 16 16 16 16 16 16 16 16 16 16 16 16 16 16 15 15 15 15 16 16 16 16 16 16 16
17 17 17 17 16 16 16 16 16 16 16 16 16 16 16 16 15 16 16 16 16 16 16 16 16 16 16 16 16 16 15 15 15 15 15 15 16 16 16 16 16 16 16
17 17 17 17 16 16 16 16 16 16 16 16 16 15 15 15 15 15 16 16 16 16 16 15 16 15 15 15 15 15 15 15 15 15 15 15 15 15 16 16 16 16 16
17 17 17 17 17 16 16 16 16 16 16 16 15 15 15 15 15 15 15 15 15 15 15 15 15 15 15 15 15 15 15 15 15 15 15 15 15 15 15 15 15 15 15
17 17 17 17 17 17 16 16 16 16 15 16 15 15 15 15 15 15 15 15 15 15 15 15 15 15 15 15 15 15 15 15 15 15 15 15 15 15 15 15 15 15 15
17 17 17 17 17 17 16 16 16 16 15 15 15 15 15 15 15 15 15 15 15 15 15 15 15 15 15 15 15 15 15 15 15 15 15 15 15 15 15 15 15 14 15
18 17 17 17 16 16 16 16 16 16 15 15 15 15 15 15 15 15 15 15 15 15 14 14 15 15 15 14 14 14 14 14 14 14 14 14 14 14 14 14 14 14 14
18 17 17 17 16 16 16 16 16 16 16 15 15 15 15 15 15 15 15 15 15 14 14 14 14 14 14 14 14 14 14 14 14 14 14 14 14 14 14 14 14 14 14
17 17 17 17 16 16 16 16 16 16 15 15 15 15 15 15 15 15 15 15 15 14 14 14 14 14 14 14 14 14 14 14 14 14 14 14 14 14 14 14 14 14 14
17 17 17 17 16 16 16 16 16 15 15 15 15 15 15 15 15 15 15 15 14 14 14 14 14 14 14 14 14 14 14 14 14 14 14 14 14 14 13 14 14 14 14
17 17 17 16 16 16 16 16 16 15 15 15 15 15 15 15 15 15 15 14 14 14 14 14 14 14 14 14 14 14 14 14 14 14 14 14 13 13 13 13 13 13 14
17 16 16 16 16 16 16 16 15 15 15 15 15 15 15 15 15 15 14 14 14 14 14 14 14 14 14 14 14 14 14 14 14 14 13 13 13 13 13 13 13 13 13
17 16 16 16 16 16 16 15 15 15 15 15 15 15 15 15 15 14 14 14 14 14 14 14 14 14 14 14 14 14 14 14 13 13 13 13 13 13 13 13 13 13 13
16 16 16 16 16 16 15 15 15 15 15 15 15 15 15 15 15 15 14 14 14 14 14 14 14 14 14 14 14 14 15 15 14 13 13 13 13 13 13 13 12 12 12
16 16 16 16 16 15 15 15 15 15 15 15 15 15 15 15 14 14 14 14 14 14 14 14 14 14 14 14 14 14 14 14 14 14 13 13 13 13 13 13 12 12 12
16 16 16 16 15 15 15 15 15 15 15 15 15 14 14 14 14 14 14 14 14 14 14 14 14 14 14 14 14 13 13 14 14 14 14 13 13 13 12 12 12 12 12
16 16 16 15 15 15 15 15 15 15 15 15 14 14 14 14 14 14 14 14 14 14 14 14 14 14 14 14 14 14 13 14 14 14 14 13 13 13 12 12 12 12 12
Wind_Speed
4 6 8 8 8 9 9 9 10 10 10 10 10 10 10 10 10 10 10 11 10 10 10 11 11 11 11 11 11 11 11 11 10 9 8 8 8 9 9 8 7 9 10
4 5 6 7 8 9 9 9 9 9 10 10 10 10 10 10 10 10 11 11 12 12 12 11 12 12 12 12 12 12 12 11 10 9 8 9 10 10 9 9 8 9 10
4 5 6 8 8 9 9 9 9 9 9 10 10 10 10 11 11 11 11 12 13 13 13 13 12 12 12 12 13 13 12 11 10 9 7 8 10 11 10 10 10 10 10
5 5 7 8 8 8 9 9 9 9 9 10 10 10 10 11 11 12 12 12 12 13 13 13 13 12 12 13 13 13 13 12 10 8 7 9 9 11 10 10 10 10 10
6 6 8 8 8 8 9 9 9 9 9 10 10 10 10 11 11 11 12 12 12 13 13 12 12 13 13 13 13 13 13 12 10 9 9 9 10 11 11 10 10 10 10
6 6 8 7 7 8 8 9 9 9 10 10 10 10 10 11 11 11 11 12 12 13 13 12 12 13 13 13 13 13 12 10 9 10 9 10 10 12 12 12 11 11 10
6 6 8 7 7 8 9 9 9 10 10 9 9 10 11 11 11 11 12 13 13 13 13 12 12 12 13 13 13 13 12 10 10 10 10 10 11 13 12 12 12 12 11
5 6 7 8 7 8 9 9 10 10 10 10 10 10 11 11 11 12 12 13 14 14 14 13 13 13 14 14 13 13 11 9 10 10 11 11 13 13 13 12 12 12 11
5 5 5 6 7 8 9 9 9 10 10 11 11 11 11 11 12 12 13 13 13 13 14 14 16 16 16 15 14 13 12 10 10 9 10 10 13 12 12 12 12 12 12
4 5 5 6 6 6 8 9 9 10 10 10 10 10 10 11 12 12 12 13 13 14 15 15 17 18 17 16 15 13 10 9 10 10 10 11 12 12 12 12 12 12 11
4 4 4 5 5 6 7 7 7 8 7 7 9 8 7 8 10 11 13 13 14 14 15 15 16 16 15 15 13 11 9 9 10 10 10 12 11 11 12 12 12 11 11
4 4 4 4 5 5 5 5 5 6 6 6 7 7 7 9 9 10 13 13 13 13 13 13 12 11 9 10 10 8 8 10 9 9 11 12 11 10 11 11 11 11 11
4 4 4 4 4 4 4 5 5 5 5 5 6 7 7 7 7 7 7 8 9 8 9 9 8 8 8 8 8 8 9 8 8 9 11 12 10 10 10 10 10 10 10
3 3 4 3 4 4 4 4 4 4 4 4 5 6 6 5 5 6 5 6 6 6 7 7 7 8 9 9 9 9 9 7 8 9 11 12 11 11 10 10 10 10 9
3 3 3 2 3 4 4 3 3 4 4 5 4 5 5 4 5 5 6 5 6 6 6 6 6 8 8 8 8 8 8 8 8 8 10 12 12 11 11 10 10 10 9
3 3 3 2 2 3 3 2 3 3 4 4 4 5 5 5 5 5 5 5 5 5 6 6 7 6 6 7 7 8 7 7 8 8 8 10 12 12 10 10 9 9 9
2 3 3 2 2 2 3 3 3 3 3 4 4 4 5 5 5 5 5 5 5 6 6 6 6 6 6 6 7 7 7 7 7 7 7 7 8 11 11 9 9 8 8
2 3 4 3 3 3 2 2 2 3 3 3 3 3 4 5 5 4 4 4 5 5 5 4 4 5 5 5 5 5 5 5 6 6 6 6 6 7 9 10 10 9 8
2 2 3 3 3 3 3 2 2 3 3 3 3 3 3 4 4 4 3 4 5 4 4 4 3 4 4 5 5 4 4 4 5 5 6 6 6 5 6 8 8 9 8
2 2 2 3 3 3 2 3 3 3 3 3 3 3 3 3 3 4 3 4 4 3 3 3 4 3 3 4 4 4 4 4 4 4 4 5 5 5 5 5 5 6 8
2 2 3 3 3 3 2 2 2 2 2 2 2 3 3 3 3 3 3 3 3 3 3 3 3 4 3 3 3 3 4 4 4 3 3 3 4 5 4 4 4 4 4
2 2 3 3 3 3 2 2 2 2 2 3 2 3 2 2 2 2 3 3 3 3 3 3 3 2 2 1 1 1 2 2 3 3 3 2 3 3 4 4 3 3 4
2 3 3 3 3 3 4 3 3 3 3 3 2 2 2 2 2 2 2 3 3 3 3 3 3 3 2 2 1 1 1 1 1 2 2 2 3 2 3 3 3 4 4
3 3 3 3 3 3 4 4 4 3 3 3 2 2 2 2 2 1 2 2 3 2 3 3 3 2 2 2 1 1 2 1 1 1 2 2 2 2 2 2 3 3 4
2 3 3 3 3 3 3 3 4 3 2 2 2 3 2 2 1 1 1 1 2 2 3 3 3 2 2 2 1 1 1 1 2 1 1 1 1 2 2 2 2 3 4
2 3 3 3 3 3 3 4 4 4 3 3 3 3 2 2 1 1 1 1 2 2 2 2 3 3 3 3 2 2 2 2 2 1 1 1 1 1 2 2 2 3 3
Wind_Direction
37 36 35 27 37 39 40 46 54 57 60 62 63 65 65 65 64 65 68 68 74 83 88 86 89 91 93 95 99 100 100 97 95 95 93 97 106 112 111 110 116 107 103
50 51 52 36 41 43 43 49 56 60 62 64 64 65 67 68 66 69 72 72 76 83 86 87 90 92 92 92 94 96 95 93 92 91 94 99 107 109 107 101 90 96 104
64 58 62 48 44 45 46 48 57 63 63 65 66 66 66 66 65 69 73 74 77 80 83 86 88 91 92 92 93 93 91 90 88 89 94 96 102 102 102 99 97 98 101
70 60 55 47 42 44 47 50 57 62 63 66 67 67 66 65 65 68 73 76 77 80 82 85 88 90 90 91 91 91 89 86 81 85 84 82 89 97 100 101 98 96 97
74 65 63 46 42 44 48 53 57 63 64 66 66 67 65 65 68 70 73 74 77 80 81 84 88 91 92 92 92 90 88 86 80 76 77 78 80 88 93 95 95 95 94
80 70 68 49 46 48 51 56 60 64 66 65 65 67 68 67 71 74 72 72 77 80 79 82 88 92 94 93 92 90 88 86 82 75 76 78 82 84 85 87 89 90 90
81 73 72 61 53 53 57 64 64 65 67 69 69 70 70 69 70 75 74 75 77 80 79 81 86 95 95 92 91 89 88 85 81 80 78 78 81 85 85 84 87 86 86
78 74 77 84 67 61 60 64 66 67 69 69 71 72 71 70 71 74 77 78 80 81 79 76 78 90 94 90 89 87 84 80 83 80 78 78 81 84 84 83 83 83 81
84 76 72 77 87 88 71 63 65 69 70 69 70 72 71 72 73 76 78 78 80 81 81 76 81 90 90 88 86 83 81 73 77 77 78 76 80 83 84 83 81 80 79
86 78 75 72 71 79 87 76 71 71 71 73 75 77 80 83 81 81 81 78 80 82 82 80 81 85 84 83 81 78 75 73 73 75 74 77 79 82 82 82 82 81 79
95 83 74 73 74 75 78 88 90 87 79 90 91 89 89 84 82 82 75 78 80 81 81 81 81 84 87 85 80 75 69 69 71 69 69 73 77 81 81 81 82 81 78
102 91 79 77 76 79 79 84 77 82 81 77 81 85 82 81 79 80 83 80 80 83 84 81 82 87 87 87 85 78 71 69 66 69 72 71 74 78 81 82 82 80 78
100 96 83 83 83 80 87 80 75 77 81 79 81 89 88 90 94 85 86 93 92 91 87 88 87 78 77 74 72 72 69 68 66 67 70 69 74 79 80 81 80 79 78
105 99 93 88 90 83 85 85 81 84 84 82 82 87 91 91 91 90 89 85 87 86 85 83 82 84 80 78 76 74 72 69 69 70 67 65 71 78 79 79 78 77 75
131 124 109 97 87 86 80 77 80 78 79 87 84 84 92 96 96 96 91 85 85 88 92 86 84 82 79 75 74 72 72 72 72 74 71 65 65 70 74 75 75 75 74
147 139 123 115 104 97 94 87 81 85 88 84 86 85 89 92 94 96 96 95 90 87 86 89 88 85 81 78 76 75 71 71 72 74 75 72 65 62 65 72 71 72 71
151 145 130 128 119 112 99 84 88 92 94 90 89 84 87 92 96 99 97 98 99 99 98 92 90 88 86 83 78 73 71 68 69 69 69 70 73 69 62 65 64 66 66
151 142 137 146 145 126 107 106 106 107 104 100 92 87 87 96 96 98 96 99 104 105 102 99 98 95 90 85 80 74 72 71 69 69 72 71 66 66 69 61 57 58 60
160 153 148 149 150 135 121 116 104 110 110 101 94 90 89 93 103 110 106 111 110 109 108 109 100 96 95 90 85 78 70 69 68 66 68 68 67 64 66 76 66 57 56
160 166 155 152 156 139 136 130 117 111 113 99 96 106 100 104 114 120 133 129 123 121 119 122 115 105 99 99 95 83 74 74 71 58 58 62 56 57 55 59 72 74 63
160 166 158 161 159 154 147 147 139 133 120 107 101 100 106 109 123 133 145 143 142 136 139 141 130 123 120 127 125 106 93 74 69 67 60 59 61 53 53 56 55 59 76
158 170 172 166 164 163 164 164 156 131 122 114 109 100 103 125 137 157 169 159 157 151 161 158 152 148 149 200 217 170 150 132 81 68 69 60 62 62 49 50 57 61 59
169 177 179 175 167 169 168 158 141 126 137 138 127 115 104 119 142 168 173 184 178 179 178 185 186 192 178 181 304 307 299 118 126 95 69 74 65 53 50 49 55 58 64
182 185 183 176 172 170 168 170 163 166 167 164 151 141 135 129 142 138 159 191 191 188 189 199 205 209 204 189 183 303 326 12 231 150 140 94 67 52 47 61 61 61 64
178 180 185 177 176 177 179 179 189 184 180 161 153 151 151 147 145 143 168 191 202 204 208 206 209 221 219 225 221 204 191 230 261 250 173 151 121 88 65 66 78 71 67
184 183 183 180 180 184 192 193 194 186 185 178 178 170 171 165 169 170 202 203 218 224 222 215 216 217 231 238 244 236 233 241 246 243 224 186 155 113 92 71 77 76 72
Height
1525 1523 1520 1519 1518 1517 1516 1516 1515 1514 1514 1513 1512 1511 1510 1509 1508 1507 1506 1504 1501 1500 1502 1504 1504 1505 1506 1506 1507 1507 1508 1509 1510 1510 1510 1509 1509 1511 1513 1514 1515 1516 1516
1525 1524 1522 1521 1520 1519 1518 1517 1516 1516 1515 1514 1514 1513 1512 1511 1510 1509 1508 1506 1503 1503 1505 1506 1506 1507 1507 1508 1508 1509 1510 1511 1511 1511 1511 1509 1509 1512 1514 1515 1516 1516 1517
1526 1525 1524 1522 1521 1520 1519 1519 1518 1517 1517 1516 1515 1514 1513 1513 1512 1511 1510 1509 1508 1507 1508 1508 1509 1509 1509 1510 1510 1511 1512 1512 1513 1513 1513 1512 1513 1514 1515 1516 1517 1518 1518
1527 1526 1525 1523 1522 1521 1521 1520 1519 1519 1518 1518 1517 1516 1515 1514 1514 1513 1512 1511 1511 1510 1510 1510 1510 1511 1511 1512 1512 1513 1513 1514 1515 1515 1516 1516 1516 1516 1517 1518 1519 1519 1520
1528 1527 1526 1524 1524 1523 1522 1521 1521 1520 1520 1519 1518 1518 1517 1516 1515 1515 1514 1513 1513 1512 1512 1512 1512 1512 1513 1513 1514 1514 1515 1516 1516 1517 1517 1517 1517 1518 1519 1520 1520 1521 1521
1529 1529 1527 1526 1525 1524 1523 1523 1522 1522 1521 1521 1520 1520 1519 1518 1517 1517 1516 1515 1514 1514 1514 1513 1513 1513 1514 1515 1516 1516 1517 1517 1518 1519 1519 1519 1520 1520 1521 1521 1522 1522 1523
1531 1530 1529 1527 1526 1526 1525 1524 1524 1523 1523 1522 1522 1521 1521 1520 1519 1519 1518 1517 1516 1516 1515 1514 1513 1513 1515 1516 1517 1518 1518 1519 1520 1521 1521 1521 1522 1522 1522 1523 1523 1524 1524
1532 1531 1530 1529 1528 1527 1527 1526 1526 1525 1525 1524 1524 1523 1523 1522 1521 1521 1520 1519 1519 1518 1516 1514 1510 1509 1514 1517 1519 1520 1520 1521 1523 1523 1523 1523 1523 1524 1524 1524 1525 1525 1525
1533 1532 1532 1532 1530 1529 1528 1528 1527 1527 1526 1526 1526 1525 1525 1524 1524 1523 1522 1522 1521 1520 1519 1515 1509 1510 1515 1519 1520 1522 1522 1523 1525 1525 1526 1525 1525 1525 1526 1526 1526 1526 1526
1534 1534 1533 1533 1532 1532 1531 1529 1529 1529 1528 1528 1528 1527 1527 1526 1526 1525 1525 1524 1524 1523 1522 1519 1517 1517 1519 1522 1523 1524 1525 1526 1527 1527 1528 1527 1527 1527 1527 1527 1527 1527 1527
1535 1535 1535 1534 1534 1533 1533 1531 1531 1530 1530 1530 1530 1529 1529 1529 1529 1528 1527 1526 1526 1525 1525 1524 1522 1523 1524 1525 1526 1526 1527 1528 1529 1529 1529 1529 1529 1529 1528 1528 1529 1529 1529
1536 1536 1536 1536 1535 1535 1534 1534 1533 1533 1532 1532 1532 1531 1531 1531 1531 1530 1529 1529 1528 1528 1528 1528 1527 1527 1528 1529 1529 1529 1530 1530 1531 1531 1531 1530 1530 1530 1530 1530 1530 1530 1530
1537 1537 1537 1537 1536 1536 1535 1535 1535 1534 1534 1534 1534 1533 1533 1533 1533 1532 1532 1532 1531 1531 1531 1531 1531 1531 1531 1531 1532 1532 1532 1532 1533 1533 1532 1532 1531 1531 1531 1531 1531 1531 1531
1538 1538 1538 1538 1538 1537 1537 1536 1536 1536 1536 1535 1535 1535 1535 1534 1535 1535 1534 1534 1534 1534 1534 1534 1534 1534 1534 1534 1534 1534 1534 1534 1534 1534 1534 1533 1533 1533 1532 1532 1532 1532 1531
1538 1538 1538 1538 1538 1538 1538 1537 1538 1537 1537 1537 1536 1537 1537 1536 1537 1536 1536 1535 1536 1536 1536 1536 1536 1536 1536 1536 1536 1536 1536 1536 1536 1536 1535 1535 1534 1534 1534 1533 1533 1532 1532
1538 1538 1538 1539 1539 1539 1539 1539 1539 1539 1538 1538 1538 1538 1538 1538 1538 1538 1538 1537 1538 1538 1538 1538 1538 1537 1537 1538 1538 1537 1537 1537 1537 1537 1537 1536 1536 1535 1535 1534 1534 1534 1534
1538 1538 1538 1539 1539 1539 1539 1539 1539 1539 1539 1539 1539 1540 1540 1539 1539 1540 1540 1539 1539 1539 1539 1539 1539 1539 1539 1539 1539 1539 1539 1539 1539 1539 1539 1538 1538 1537 1536 1536 1535 1535 1535
1537 1538 1538 1538 1539 1539 1539 1539 1540 1540 1540 1540 1540 1540 1541 1541 1541 1541 1541 1541 1541 1541 1541 1541 1541 1541 1541 1541 1541 1541 1541 1540 1540 1540 1540 1540 1539 1538 1538 1537 1536 1536 1535
1537 1538 1538 1539 1539 1539 1539 1540 1540 1540 1540 1541 1541 1541 1541 1542 1542 1542 1541 1542 1542 1542 1542 1542 1542 1542 1542 1542 1542 1542 1542 1542 1541 1542 1541 1541 1540 1540 1539 1538 1537 1536 1536
1536 1537 1538 1538 1539 1539 1539 1540 1540 1540 1541 1541 1541 1541 1542 1542 1542 1542 1542 1543 1543 1543 1543 1543 1543 1543 1543 1543 1543 1543 1543 1543 1542 1542 1542 1541 1541 1541 1540 1539 1538 1537 1536
1536 1536 1537 1538 1538 1539 1539 1540 1540 1541 1541 1541 1542 1542 1542 1542 1542 1543 1543 1543 1543 1543 1543 1544 1543 1544 1544 1544 1544 1544 1544 1543 1543 1542 1542 1542 1541 1541 1540 1540 1539 1538 1537
1534 1535 1536 1537 1537 1538 1538 1539 1540 1540 1541 1541 1542 1542 1542 1543 1543 1543 1543 1543 1543 1543 1543 1544 1544 1544 1544 1544 1545 1545 1545 1545 1543 1543 1542 1542 1542 1541 1541 1540 1540 1539 1538
1533 1534 1535 1536 1537 1537 1538 1539 1539 1540 1540 1541 1541 1542 1542 1543 1543 1543 1543 1544 1543 1544 1544 1544 1544 1544 1544 1544 1544 1545 1544 1544 1544 1544 1543 1543 1542 1542 1541 1540 1540 1540 1539
1533 1533 1534 1535 1536 1537 1537 1538 1538 1539 1540 1540 1541 1541 1542 1542 1542 1542 1543 1543 1544 1543 1543 1544 1544 1544 1544 1544 1544 1543 1544 1544 1544 1544 1544 1543 1542 1542 1541 1541 1540 1540 1539
1532 1532 1533 1534 1535 1535 1536 1537 1538 1539 1539 1540 1540 1541 1541 1541 1541 1542 1542 1542 1543 1543 1543 1543 1543 1543 1543 1543 1543 1543 1543 1543 1543 1543 1543 1543 1542 1542 1541 1541 1541 1540 1539
1530 1531 1531 1532 1533 1534 1535 1536 1537 1538 1538 1539 1539 1540 1540 1540 1540 1541 1541 1541 1542 1542 1542 1542 1542 1542 1542 1542 1542 1542 1542 1543 1543 1543 1542 1542 1542 1542 1541 1541 1540 1540 1539